Weather in Mikhaylovka

Russia / Altai Krai     51°57′28″N   83°48′13″E
temp.,
°C
wind,
m/s
gust,
m/s
humid.,
%
clouds,
%
prec.,
mm/h
press.,
hPa
HPBL,
m
6 march, sat
sat601:00−4sw8197371 0.0 1028953
04:00−6ssw51774100 0.0 1026683
07:00−8ssw41173100 0.0 1026286
10:00−6s41675100 0.0 1026776
13:000sw71768100 0.0 10221256
16:00+1sw7167187 0.0 10201250
19:00−2sw6187089 0.0 1019669
22:00−4sw4127296 0.0 1019261
7 march, sun
sun701:00−5ssw357798 0.0 101995
04:00−5ssw3878100 0.0 1017179
07:00−5wsw31178100 0.0 1019385
10:00−3sw41481100 0.0 1020759
13:000wsw71278100 0.0 1020914
16:000w61081100 0.0 1021825
19:00−3w2489100 0.0 102290
22:00−5s2287100 0.0 102321
8 march, mon
mon801:00−5se1185100 0.0 102221
04:00−6sse2286100 0.0 102121
07:00−6sse237980 0.0 102121
10:00−3sse227891 0.0 101837
13:00+1s1110094 0.0 101650
16:00+3sw6178961 0.0 1015906
19:00+2sw10207081 0.0 1016943
22:00+1sw10197786 0.0 1018778
9 march, tue
tue901:000wsw8169366 0.1 1021843
04:00−2wnw699798 1.3 1024491
07:00−8w269599 1.8 1027188
10:00−7wsw139197 0.1 1028168
13:00−4nne219497 0.4 1027180
16:00−3ene339697 0.1 1025228
19:00−3e229798 0.3 102349
22:00−3sse239086 0.0 102222
10 march, wed
wed1001:00−2sse238693 0.1 102028
04:00−2s348698 0.0 101862
07:00−3s348259 0.0 101842
10:00−1sse228544 0.0 101748
13:00+1ese2210064 0.0 101558
16:00+1e2310079 0.0 101251
19:00+1se238687 0.0 100925
22:00+1s238199 0.0 100723